Regional Weather Roundup
Issued by NWS

Home | Current Version | Previous Version | Graphics & Text | Print | Product List | Glossary On
Versions: 1 2 3 4 5 6 7 8 9 10 11 12 13 14 15 16 17 18 19 20 21 22 23 24 25 26 27 28 29 30 31 32 33 34 35 36 37 38 39 40 41 42 43 44 45 46 47 48 49 50
000
ASUS43 KMKX 222200
RWRWI

WISCONSIN REGIONAL WEATHER ROUNDUP
NATIONAL WEATHER SERVICE MILWAUKEE/SULLIVAN WI
500 PM CDT THU JUN 22 2017

NOTE: "FAIR" INDICATES FEW OR NO CLOUDS BELOW 12,000 FEET WITH NO
SIGNIFICANT WEATHER AND/OR OBSTRUCTIONS TO VISIBILITY.

WIZ001-002-006>008-014>016-023>028-222300-
NORTHWEST WISCONSIN

CITY           SKY/WX    TMP DP  RH WIND       PRES   REMARKS
SUPERIOR ARPT  NOT AVBL
ASHLAND        CLOUDY    75  52  44 SW9       29.69S
HAYWARD        PTSUNNY   71  57  61 W8        29.73S
SIREN          PTSUNNY   71  58  62 W9        29.74S
CUMBERLAND     CLOUDY    64  61  88 W8        29.74F
RICE LAKE      CLOUDY    65  63  92 SW6       29.76S
CHETEK         RAIN      65  64  97 W3        29.75F
LADYSMITH      CLOUDY    65  63  94 CALM      29.76R
EAU CLAIRE     NOT AVBL
MENOMONIE      CLOUDY    69  68  96 N8        29.73S
NEW RICHMOND   RAIN      65  64  96 W5        29.75F
OSCEOLA        CLOUDY    68  68 100 SW7       29.77S
$$

WIZ003>005-009-010-017-018-222300-
NORTH CENTRAL WISCONSIN

CITY           SKY/WX    TMP DP  RH WIND       PRES   REMARKS
MANITOWISH WTR CLOUDY    65  62  89 SW10      29.71F
ARBOR VITAE    CLOUDY    64  62  91 W5        29.72F
WOODRUFF       CLOUDY    64  62  91 W5        29.72F
RHINELANDER    LGT RAIN  65  64  97 SW5       29.73F
EAGLE RIVER    CLOUDY    64  62  94 W8        29.73R
LAND O LAKES   CLOUDY    66  61  85 W5        29.73F
PHILLIPS       LGT RAIN  63  63 100 W6        29.75S
TOMAHAWK       NOT AVBL
MEDFORD        CLOUDY    66  62  88 W5        29.74F
MERRILL        CLOUDY    67  65  93 CALM      29.73S
$$

WIZ029-030-035-036-043>047-222300-
CENTRAL WISCONSIN

CITY           SKY/WX    TMP DP  RH WIND       PRES   REMARKS
WAUSAU         LGT RAIN  66  64  93 S3        29.71S
MOSINEE        LGT RAIN  66  64  94 S8        29.76R FOG
MARSHFIELD     LGT RAIN  66  64  93 S7        29.72S FOG
STEVENS POINT  LGT RAIN  66  66 100 CALM      29.74S
WAUPACA        LGT RAIN  71  70  96 SW3       29.74R
WAUTOMA        LGT RAIN  69  67  93 CALM      29.74F
WISC RAPIDS    RAIN      68  66  93 SW6       29.76R FOG
CAMP DOUGLAS   TSTM      68  68 100 NW7       29.76R FOG
$$

WIZ011>013-019>022-031-037>040-048>050-222300-
NORTHEAST WISCONSIN

CITY           SKY/WX    TMP DP  RH WIND       PRES   REMARKS
ANTIGO         CLOUDY    65  64  96 SW5       29.74S
SHAWANO        LGT RAIN  71  68  90 CALM      29.72S
OCONTO         CLOUDY    69  66  91 W6        29.71S
STURGEON BAY   LGT RAIN  69  67  93 SW7         N/A
GREEN BAY      LGT RAIN  72  70  93 W7        29.72F
MANITOWOC      NOT AVBL
APPLETON       LGT RAIN  70  68  94 SW10      29.72F
CLINTONVILLE   LGT RAIN  70  66  88 SW5       29.72F
OSHKOSH        LGT RAIN  72  66  81 SW6       29.74S
$$

WIZ032>034-041-042-053>061-222300-
SOUTHWEST WISCONSIN

CITY           SKY/WX    TMP DP  RH WIND       PRES   REMARKS
LA CROSSE      CLOUDY    71  69  93 SE6       29.72F THUNDER
SPARTA         TSTM      67  66  98 CALM      29.78R
VIROQUA        CLOUDY    71  69  93 CALM      29.75S
BOSCOBEL       PTSUNNY   77  71  82 N6        29.71S
PRAIRIE DU CHI CLOUDY    79  68  69 CALM      29.70R HX  81
PLATTEVILLE    PTSUNNY   81  71  72 S5        29.71F HX  85
$$

WIZ056-057-062-063-064-067-068-222300-
SOUTH CENTRAL WISCONSIN

CITY           SKY/WX    TMP DP  RH WIND       PRES   REMARKS
REEDSBURG      CLOUDY    72  68  89 N5        29.73F
BARABOO/DELLS  CLOUDY    72  65  79 N6        29.74F THUNDER
LONE ROCK      NOT AVBL
MINERAL POINT  CLOUDY    81  72  74 S5        29.72F HX  84
MADISON        PTSUNNY   79  68  69 E5        29.71F HX  81
MIDDLETON      MOSUNNY   79  68  69 CALM      29.73F HX  81
WATERTOWN      MOSUNNY   77  69  76 CALM      29.74R
MONROE         CLOUDY    81  68  65 SW7       29.73R HX  83
JANESVILLE     PTSUNNY   84  70  61 SW8       29.70F HX  88
$$

WIZ051-052-058>065-066-070>072-222300-
SOUTHEAST WISCONSIN

CITY           SKY/WX    TMP DP  RH WIND       PRES   REMARKS
MILWAUKEE      PTSUNNY   75  66  73 N9        29.72F
WAUKESHA       PTSUNNY   75  66  73 NW7       29.75F
MILWAUKEE/TIMM MOSUNNY   77  66  69 N5        29.74F
RACINE         MOSUNNY   85  68  56 S10       29.71F HX  88
KENOSHA        PTSUNNY   84  69  60 S13G21    29.70F HX  88
FOND DU LAC    CLOUDY    73  64  73 W3        29.74F
SHEBOYGAN      CLOUDY    75  67  76 W6        29.75R
WEST BEND      CLOUDY    75  66  73 CALM      29.75R
JUNEAU         PTSUNNY   75  66  72 N8        29.76R
$$

LSZ147-162-222300-
LAKE SUPERIOR

STATION/POSITION TIME  TEMP    WIND        PRES    WAVE
                       AIR SEA DIR/SP/G            HT/PER
                 (UTC) (F)     (DEG/KT/KT) (MB)    (FT/S)
W MID LAKE BUOY  2050   47 39  230/ 10/ 10 1004.3R   1
DEVILS ISLAND    2100   64     220/ 11/ 14 1004.0S
SAXON HARBOR     2130   74     230/  5/  8 1005.1R
$$

LMZ867-665-643>646-222300-
LAKE MICHIGAN

STATION/POSITION TIME  TEMP    WIND        PRES    WAVE
                       AIR SEA DIR/SP/G            HT/PER
                 (UTC) (F)     (DEG/KT/KT) (MB)    (FT/S)
CHAMBERS ISLAND  2140   67     180/  5/ 14 1005.4R
N MID LAKE BUOY  2050   59 55  220/ 12/ 14 1006.1F   2/ 5
NORTHPORT PIER   2140   68     180/  4/  7 1005.4S
KEWAUNEE LAKESHO 2130   74     260/  3/  6 1006.0R
SHEBOYGAN LAKESH 2100   62     180/ 10/ 11 1006.8F
PORT WASHINGTON  2140   69     320/  1/  2 1007.8F
ATWATER BUOY     2009   62 56  350/  4/  8 1008.2R
MILWAUKEE LAKESH 2130   65      50/ 11/ 11   N/A
S MID LAKE BUOY  2050   67 61  190/  8/  8 1008.3F   2/ 4
KENOSHA   LAKESH 2100   85     230/ 10/ 15 1007.1
$$

TC  - TEMPERATURE IN CELSIUS
VSB - VISIBILITY IN STATUTE MILES
WCI - WIND CHILL INDEX
HX  - HEAT INDEX




USA.gov is the U.S. government's official web portal to all federal, state and local government web resources and services.